Location: Stara Lesna
(49.1528°N, 20.2911°E)
Time: 09:56:51
(UTC+02:00)

Helios 1A - Pass Details

Date: 13 July 2020
Orbit: 587 x 600 km, 98.2° (Epoch: 01 August)

Event Time Altitude Azimuth Distance (km) Brightness Sun altitude
Exits shadow 00:52:58 43° 210° (SSW) 833 3.3 -19.0°
Maximum altitude 00:53:58 56° 259° (WSW) 708 3.2 -19.0°
Drops below altitude 10° 00:58:05 10° 338° (NNW) 1,929 6.6 -19.0°
Sets 01:00:18 0° 343° (NNW) 2,836 7.7 -19.0°
